Tracking 35275 objects as of 9-Sep-2026
HD Live streaming from Space Station
objects crossing your sky now

STARLINK-3937

Track STARLINK-3937 now!
10-day predictions
STARLINK-3937 is classified as:


NORAD ID: 52542
Int'l Code: 2022-051K
Launch date: May 13, 2022
Source: United States (US)
Launch site: AIR FORCE WESTERN TEST RANGE (AFWTR)
Your satellite tracking list
Your tracking list is empty




NASA's NSSDC Master Catalog

Two Line Element Set (TLE):
1 52542U 22051K   26251.56073474  .00000282  00000-0  19491-4 0  9990
2 52542  53.1611  13.4677 0001027  81.4149 278.6970 15.34392760239252
Source of the keplerian elements: AFSPC